Skip Page Navigation
NASA JPL Caltech
NASA Logo - Jet Propulsion Laboratory + View the NASA Portal
+ Near-Earth Object (NEO) Program
Search JPL
JPL Home Earth Solar System Stars & Galaxies Technology
JPL Solar System Dynamics
BODIES ORBITS EPHEMERIDES TOOLS PHYSICAL DATA DISCOVERY FAQ SITE MAP
JPL Small-Body Database Browser
Search: [ help ]  
7277 Klass (1983 RM2)
Classification: Main-belt Asteroid          SPK-ID: 2007277
Ephemeris | Orbit Diagram | Orbital Elements | Physical Parameters | Discovery Circumstances ]

[ show orbit diagram ]
Orbital Elements at Epoch 2456400.5 (2013-Apr-18.0) TDB
Reference: MPO236435 (heliocentric ecliptic J2000)
 Element Value Uncertainty (1-sigma)   Units 
e 0.2233239 n/a  
a 2.6172710 n/a AU
q 2.0327718 n/a AU
i 3.79495 n/a deg
node 97.20153 n/a deg
peri 239.83203 n/a deg
M 357.14220 n/a deg
tp 2456412.7772414
(2013-Apr-30.27724140)
n/a JED
period 1546.5767040
4.23
n/a
n/a
d
yr
n 0.23277216 n/a deg/d
Q 3.2017702 n/a AU
  Orbit Determination Parameters
   # obs. used (total)      830  
   first obs. used      1979-??-??  
   last obs. used      2012-08-12  
   # oppositions      18  
   planetary ephem.      DE403  
   condition code      0  
   fit RMS      0.58  
   data source      MPC:mpn  
   producer      MPCLINUX  

Additional Information
 T_jup = 3.368 

Ephemeris | Orbit Diagram | Orbital Elements | Physical Parameters | Discovery Circumstances ]

Physical Parameter Table
Parameter Symbol Value Units Sigma Reference Notes
absolute magnitude H 13.8 mag n/a PDS3 (MPC 28284)  

7277 Klass           Discovered 1983 Sept. 4 by E. Bowell at the Anderson Mesa Station of Lowell Observatory.
Named in honor of Philip J. Klass (b. 1919), for more than 30 years the senior avionics editor of Aviation Week and Space Technology magazine. Klass is best known to the public for his work in skeptically evaluating sensationalist claims about UFOs, making numerous TV appearances and writing five books on the subject. He has also written extensively on surveillance satellites. Name and citation provided by R. Sheaffer.
NOTE: some special characters may not display properly (any characters within {} are an attempt to place the proper accent above a character)
Reference: 19990202/MPCPages.arcLast Updated: 2010-06-11

Alternate Designations
 1983 RM2 = 1979 VS = 1982 HH3 = 1991 LP1 
Ephemeris | Orbit Diagram | Orbital Elements | Physical Parameters | Discovery Circumstances ]
ABOUT SSD CREDITS/AWARDS PRIVACY/COPYRIGHT GLOSSARY LINKS
FirstGov 2013-May-23 19:26 UT
(server date/time)  
NASA Home Page
Site Manager:   Donald K. Yeomans
Webmaster  Alan B. Chamberlin